• In Italy
  • List of Countries
  • For 7 days
  • Water Temperature
  • Satellite Maps
  • Weather Map
  • Weather Widgets
  • user-avatar
    Login

    Hourly Weather Manama

    Today, 21 September, Friday

    Time Temperature Precipitation Wind Pressure Humidity
    00:00 +32°C° 0 mm 0 mps 753 mmHg 67%
    01:00 +34°C° 0 mm 1 mps 753 mmHg 66%
    02:00 +34°C° 0 mm 1 mps 753 mmHg 65%
    03:00 +33°C° 0 mm 1 mps 753 mmHg 65%
    04:00 +33°C° 0 mm 1 mps 753 mmHg 64%
    05:00 +33°C° 0 mm 1 mps 754 mmHg 62%
    06:00 +34°C° 0 mm 2 mps 754 mmHg 61%
    07:00 +36°C° 0 mm 2 mps 754 mmHg 55%
    08:00 +37°C° 0 mm 2 mps 755 mmHg 49%
    09:00 +39°C° 0 mm 2 mps 755 mmHg 42%
    10:00 +40°C° 0 mm 2 mps 755 mmHg 40%
    11:00 +41°C° 0 mm 2 mps 755 mmHg 37%
    12:00 +42°C° 0 mm 2 mps 755 mmHg 34%
    13:00 +41°C° 0 mm 2 mps 754 mmHg 35%
    14:00 +41°C° 0 mm 2 mps 754 mmHg 36%
    15:00 +42°C° 0 mm 3 mps 754 mmHg 38%
    16:00 +40°C° 0 mm 2 mps 754 mmHg 41%
    17:00 +39°C° 0 mm 2 mps 754 mmHg 43%
    18:00 +38°C° 0 mm 2 mps 754 mmHg 46%
    19:00 +38°C° 0 mm 2 mps 754 mmHg 50%
    20:00 +37°C° 0 mm 2 mps 754 mmHg 53%
    21:00 +37°C° 0 mm 2 mps 754 mmHg 56%
    22:00 +36°C° 0 mm 2 mps 754 mmHg 58%
    23:00 +35°C° 0 mm 2 mps 754 mmHg 60%

    Tomorrow, 22 September, Saturday

    Time Temperature Precipitation Wind Pressure Humidity
    00:00 +35°C° 0 mm 2 mps 754 mmHg 61%
    01:00 +33°C° 0 mm 1 mps 754 mmHg 62%
    02:00 +33°C° 0 mm 1 mps 754 mmHg 64%
    03:00 +31°C° 0 mm 0 mps 754 mmHg 65%
    04:00 +31°C° 0 mm 0 mps 754 mmHg 64%
    05:00 +30°C° 0 mm 0 mps 754 mmHg 64%
    06:00 +30°C° 0 mm 0 mps 755 mmHg 64%
    07:00 +32°C° 0 mm 0 mps 755 mmHg 58%
    08:00 +33°C° 0 mm 0 mps 756 mmHg 53%
    09:00 +37°C° 0 mm 1 mps 756 mmHg 48%
    10:00 +39°C° 0 mm 1 mps 756 mmHg 44%
    11:00 +40°C° 0 mm 1 mps 755 mmHg 40%
    12:00 +41°C° 0 mm 1 mps 755 mmHg 36%
    13:00 +41°C° 0 mm 2 mps 755 mmHg 34%
    14:00 +42°C° 0 mm 2 mps 754 mmHg 33%
    15:00 +43°C° 0 mm 3 mps 754 mmHg 32%
    16:00 +42°C° 0 mm 3 mps 754 mmHg 37%
    17:00 +39°C° 0 mm 3 mps 754 mmHg 42%
    18:00 +38°C° 0 mm 4 mps 754 mmHg 47%
    19:00 +37°C° 0 mm 3 mps 755 mmHg 50%
    20:00 +37°C° 0 mm 3 mps 755 mmHg 52%
    21:00 +36°C° 0 mm 3 mps 755 mmHg 55%
    22:00 +36°C° 0 mm 2 mps 755 mmHg 56%
    23:00 +35°C° 0 mm 2 mps 755 mmHg 58%

    Day after tomorrow, 23 September, Sunday

    Time Temperature Precipitation Wind Pressure Humidity
    00:00 +35°C° 0 mm 2 mps 755 mmHg 59%
    01:00 +33°C° 0 mm 1 mps 755 mmHg 60%
    02:00 +33°C° 0 mm 1 mps 755 mmHg 61%
    03:00 +32°C° 0 mm 1 mps 755 mmHg 61%
    04:00 +32°C° 0 mm 1 mps 755 mmHg 61%
    05:00 +32°C° 0 mm 1 mps 755 mmHg 60%
    06:00 +32°C° 0 mm 1 mps 755 mmHg 59%
    07:00 +34°C° 0 mm 1 mps 756 mmHg 54%
    08:00 +36°C° 0 mm 2 mps 756 mmHg 49%
    09:00 +38°C° 0 mm 2 mps 757 mmHg 44%
    10:00 +37°C° 0 mm 1 mps 756 mmHg 41%
    11:00 +39°C° 0 mm 1 mps 756 mmHg 38%
    12:00 +40°C° 0 mm 1 mps 756 mmHg 34%
    13:00 +41°C° 0 mm 2 mps 756 mmHg 33%
    14:00 +42°C° 0 mm 3 mps 755 mmHg 31%
    15:00 +42°C° 0 mm 4 mps 755 mmHg 29%
    16:00 +41°C° 0 mm 4 mps 755 mmHg 35%
    17:00 +40°C° 0 mm 4 mps 755 mmHg 40%
    18:00 +38°C° 0 mm 4 mps 755 mmHg 46%
    19:00 +37°C° 0 mm 4 mps 755 mmHg 49%
    20:00 +37°C° 0 mm 4 mps 755 mmHg 52%
    21:00 +36°C° 0 mm 4 mps 756 mmHg 55%
    22:00 +36°C° 0 mm 3 mps 755 mmHg 54%
    23:00 +36°C° 0 mm 3 mps 755 mmHg 54%

    24 September, Monday

    Time Temperature Precipitation Wind Pressure Humidity
    00:00 +36°C° 0 mm 3 mps 755 mmHg 54%
    01:00 +35°C° 0 mm 3 mps 754 mmHg 54%
    02:00 +35°C° 0 mm 3 mps 754 mmHg 54%
    03:00 +35°C° 0 mm 3 mps 754 mmHg 55%
    04:00 +35°C° 0 mm 2 mps 754 mmHg 54%
    05:00 +35°C° 0 mm 2 mps 754 mmHg 53%
    06:00 +34°C° 0 mm 2 mps 754 mmHg 53%
    07:00 +36°C° 0 mm 2 mps 755 mmHg 49%
    08:00 +36°C° 0 mm 1 mps 755 mmHg 45%
    09:00 +37°C° 0 mm 1 mps 756 mmHg 41%
    10:00 +39°C° 0 mm 1 mps 755 mmHg 39%
    11:00 +40°C° 0 mm 1 mps 755 mmHg 36%
    12:00 +40°C° 0 mm 1 mps 755 mmHg 33%
    13:00 +41°C° 0 mm 1 mps 754 mmHg 32%
    14:00 +41°C° 0 mm 2 mps 754 mmHg 31%
    15:00 +41°C° 0 mm 2 mps 753 mmHg 31%
    16:00 +40°C° 0 mm 2 mps 753 mmHg 33%
    17:00 +40°C° 0 mm 2 mps 754 mmHg 35%
    18:00 +39°C° 0 mm 2 mps 754 mmHg 37%
    19:00 +38°C° 0 mm 2 mps 754 mmHg 36%
    20:00 +38°C° 0 mm 2 mps 754 mmHg 36%
    21:00 +36°C° 0 mm 1 mps 755 mmHg 35%
    22:00 +36°C° 0 mm 1 mps 754 mmHg 37%
    23:00 +35°C° 0 mm 1 mps 754 mmHg 39%

    25 September, Tuesday

    Time Temperature Precipitation Wind Pressure Humidity
    00:00 +34°C° 0 mm 1 mps 754 mmHg 41%
    01:00 +34°C° 0 mm 1 mps 754 mmHg 41%
    02:00 +34°C° 0 mm 1 mps 753 mmHg 42%
    03:00 +33°C° 0 mm 1 mps 753 mmHg 43%
    04:00 +34°C° 0 mm 1 mps 754 mmHg 44%
    05:00 +34°C° 0 mm 1 mps 754 mmHg 45%
    06:00 +35°C° 0 mm 2 mps 754 mmHg 46%
    07:00 +36°C° 0 mm 2 mps 755 mmHg 42%
    08:00 +38°C° 0 mm 2 mps 755 mmHg 38%
    09:00 +39°C° 0 mm 3 mps 756 mmHg 33%
    10:00 +40°C° 0 mm 2 mps 755 mmHg 31%
    11:00 +41°C° 0 mm 2 mps 755 mmHg 28%
    12:00 +42°C° 0 mm 2 mps 754 mmHg 25%
    13:00 +42°C° 0 mm 2 mps 754 mmHg 24%
    14:00 +43°C° 0 mm 3 mps 754 mmHg 22%
    15:00 +44°C° 0 mm 3 mps 753 mmHg 21%
    16:00 +43°C° 0 mm 3 mps 753 mmHg 24%
    17:00 +40°C° 0 mm 3 mps 754 mmHg 27%
    18:00 +39°C° 0 mm 3 mps 754 mmHg 30%
    19:00 +39°C° 0 mm 3 mps 754 mmHg 32%
    20:00 +38°C° 0 mm 3 mps 754 mmHg 34%
    21:00 +38°C° 0 mm 3 mps 755 mmHg 36%
    22:00 +37°C° 0 mm 2 mps 754 mmHg 37%
    23:00 +37°C° 0 mm 2 mps 754 mmHg 38%

    26 September, Wednesday

    Time Temperature Precipitation Wind Pressure Humidity
    00:00 +35°C° 0 mm 1 mps 754 mmHg 39%
    01:00 +35°C° 0 mm 1 mps 754 mmHg 38%
    02:00 +34°C° 0 mm 1 mps 753 mmHg 38%
    03:00 +34°C° 0 mm 1 mps 753 mmHg 37%
    04:00 +34°C° 0 mm 1 mps 754 mmHg 36%
    05:00 +35°C° 0 mm 2 mps 754 mmHg 36%
    06:00 +36°C° 0 mm 2 mps 755 mmHg 36%
    07:00 +37°C° 0 mm 2 mps 755 mmHg 33%
    08:00 +38°C° 0 mm 2 mps 755 mmHg 31%
    09:00 +40°C° 0 mm 2 mps 755 mmHg 28%
    10:00 +40°C° 0 mm 2 mps 755 mmHg 27%
    11:00 +41°C° 0 mm 2 mps 755 mmHg 25%
    12:00 +42°C° 0 mm 1 mps 754 mmHg 23%
    13:00 +42°C° 0 mm 2 mps 754 mmHg 23%
    14:00 +43°C° 0 mm 3 mps 754 mmHg 22%
    15:00 +43°C° 0 mm 4 mps 753 mmHg 21%
    16:00 +42°C° 0 mm 4 mps 753 mmHg 26%
    17:00 +41°C° 0 mm 4 mps 754 mmHg 30%
    18:00 +38°C° 0 mm 4 mps 754 mmHg 35%
    19:00 +38°C° 0 mm 4 mps 754 mmHg 38%
    20:00 +37°C° 0 mm 3 mps 754 mmHg 41%
    21:00 +37°C° 0 mm 3 mps 755 mmHg 45%
    22:00 +36°C° 0 mm 2 mps 754 mmHg 46%
    23:00 +36°C° 0 mm 2 mps 754 mmHg 47%
    Show more